Zurück zum Katalog

STARLINK-5998

AktivKommunikationVLEO
NORAD 56468·PAYLOAD·🇺🇸 United States

Gestartet May 10, 2023 von Vandenberg Space Force Base

Loading…

Nächste Überflüge (nächste 24 Stunden)

TLE

AktuellSource: CelesTrak SupGP

Epoche: Sep 14, 2026, 22:07 UTC

1 56468C 23064W   26257.92201389 -.00031155  00000+0 -26109-2 0  2573
2 56468  70.0027  27.1508 0003152 273.2361 163.0705 14.98346127    13

Verfolge STARLINK-5998 in Echtzeit mit AllMySat

Download on the App Store